Other Surface Observations
Issued by NWS Tucson, AZ

Home | Current Version | Previous Version | Text Only | Print | Product List | Glossary On
Versions: 1 2 3 4 5 6 7 8 9 10 11 12 13 14 15 16 17 18 19 20 21 22 23 24 25 26 27 28 29 30 31 32 33 34 35 36 37 38 39 40 41 42 43 44 45 46 47 48 49 50
664
SXUS55 KTWC 051115
OSOTWC

WEATHER ROUNDUP FOR SOUTHEAST ARIZONA
NATIONAL WEATHER SERVICE TUCSON AZ
415 AM MST MON DEC 05 2016

AZZ504>506-514-051215-
LOCATION       SKY/WX    TMP DP  RH WIND       PRES   REMARKS
TUCSON         CLEAR     44  23  43 SE12      29.96F
DAVIS-MONTHAN  PTCLDY    42  21  43 S10       29.95F
CHILDRENS PARK N/A      N/A N/A  57 SE5               PIMA CO DEQ
ALVERNON/22ND  N/A       47 N/A N/A SE7               PIMA CO DEQ
CHERRY/GLENN   N/A       40 N/A N/A E3                PIMA CO DEQ
TANGERINE      N/A       45 N/A N/A E6                PIMA CO DEQ
CONTL RANCH    N/A       42  25  50 SE6               PIMA CO DEQ
GRANT/1ST      N/A       42  23  47 S3                PIMA CO DEQ
CRAYCROFT/22ND N/A       44  21  40 N/A               PIMA CO DEQ
GOLFLINKS/KOLB N/A       44  22  41 S5                PIMA CO DEQ
AJO/12TH       N/A       39  25  56 S8                PIMA CO DEQ
FAIRGROUNDS    N/A       42 N/A N/A SE8               PIMA CO DEQ
SAGUARO        N/A       38  21  50 N2                *SABINO CYN
SAN CARLOS     N/A       33  21  60 NW2               *SAN CARLOS
GREEN VALLEY   N/A       36  22  57 S5                PIMA CO DEQ
HORSE CAMP CYN N/A       42  21  42 E14G17            *ARAVAIPA CYN
RINCON MTNS    N/A       37   5  26 CALM              *NR MANNING CAMP
$$

AZZ509>511-051215-
LOCATION       SKY/WX    TMP DP  RH WIND       PRES   REMARKS
SAFFORD        CLEAR     32  24  72 S8        29.95F WCI  25
STRAY HORSE    N/A       33   9  36 CALM              *
TRAIL CABIN    N/A       33  17  51 SE4               *N OF GRANVILLE
BLACK HILLS    NOT AVBL
DRY LAKE       N/A       37   7  28 NW3               *NATANES MTNS
NOON CREEK     N/A       40  16  37 SW8G11            *PINALENO MTNS
COLUMBINE      N/A       36   4  26 N4G10             *PINALENO MTNS
GUTHRIE        N/A       39  22  51 SW4               *SW OF GUTHRIE
$$

AZZ502-503-513-051215-
LOCATION       SKY/WX    TMP DP  RH WIND       PRES   REMARKS
NOGALES        CLEAR     32  23  69 S5        29.99F WCI  27
SELLS          N/A       42  19  39 E4                *
SASABE         N/A       30  19  62 SW7               *ALTAR VLY
HOPKINS        N/A       44  -8  10 NW6G16            *SANTA RITA MTNS
CARR CYN       N/A       35  19  51 SW2               *W OF HEREFORD
$$

AZZ507-508-512-051215-
LOCATION       SKY/WX    TMP DP  RH WIND       PRES   REMARKS
SIERRA VISTA   CLEAR     36  16  43 S8        30.00F WCI  30
DOUGLAS        CLEAR     24  22  91 CALM      30.02F
EMPIRE MTNS    NOT AVBL
MULESHOE RANCH N/A       38  16  41 S4                *PRESERVE
HEADQUARTERS   N/A       32  22  66 E3                *CHIRICAHUA MTNS
$$

.............................NOTES.............................
THIS IS AN AUTOMATED COLLECTIVE WITH MINIMAL QUALITY CONTROL.
PIMA CO DEQ SITES HAVE NONSTANDARD WIND SENSOR HEIGHTS.
PIMA CO DEQ SITES DO NOT REPORT WIND GUSTS.
* INDICATES WIND SENSORS LOCATED AT 20 FEET INSTEAD OF 33 FEET.
..............................KEY..............................
SKY/WX - SKY CONDITION/WEATHER
TMP    - TEMPERATURE IN FAHRENHEIT
DP     - DEWPOINT IN FAHRENHEIT
RH     - RELATIVE HUMIDITY IN PERCENT
WIND   - DIRECTION AND SPEED IN MILES PER HOUR (MPH)
VRB    - VARIABLE WIND DIRECTION
PRES   - MEAN SEA LEVEL PRESSURE IN INCHES OF MERCURY
         F - FALLING PRESSURE   R - RISING PRESSURE
         S - STEADY PRESSURE
VSB    - VISIBILITY IN MILES
HX     - HEAT INDEX IN FAHRENHEIT
WCI    - WIND CHILL INDEX IN FAHRENHEIT
N/A    - NOT AVAILABLE
AFB    - AIR FORCE BASE
         DAVIS-MONTHAN IS DAVIS-MONTHAN AIR FORCE BASE
CYN    - CANYON
MTNS   - MOUNTAINS
NCA    - NATIONAL CONSERVATION AREA
NR     - NEAR
VLY    - VALLEY
CONTL  - CONTINENTAL
PIMA CO DEQ - PIMA COUNTY DEPT OF ENVIRONMENTAL QUALITY



USA.gov is the U.S. government's official web portal to all federal, state and local government web resources and services.